This is the latest recevied weather packets stored in our database for station/object VE3DVC. If no packets are shown the sender has not sent any weather packets the latest 10 day(s).
| Time | Temp. | Humidity | Pressure | Rain* | Wind** | Luminosity | Snow |
|---|---|---|---|---|---|---|---|
| 1778118027 | 7.22° C | 69% | 1012.9 hPa | 0 mm | - | - | - |
| 1778117307 | 7.78° C | 65% | 1012.8 hPa | 0 mm | - | - | - |
| 1778116587 | 7.78° C | 63% | 1012.9 hPa | 0 mm | - | - | - |
| 1778115867 | 8.33° C | 60% | 1013.1 hPa | 0 mm | - | - | - |
| 1778115147 | 8.33° C | 58% | 1012.9 hPa | 0 mm | - | - | - |
| 1778114427 | 8.89° C | 60% | 1012.8 hPa | 0 mm | - | - | - |
| 1778113707 | 8.89° C | 55% | 1012.7 hPa | 0 mm | - | - | - |
| 1778112987 | 8.89° C | 56% | 1012.5 hPa | 0 mm | - | - | - |
| 1778112267 | 8.89° C | 56% | 1012.4 hPa | 0 mm | - | - | - |
| 1778111547 | 8.89° C | 56% | 1012.3 hPa | 0 mm | - | - | - |
| 1778110826 | 9.44° C | 56% | 1012.2 hPa | 0 mm | - | - | - |
| 1778110107 | 9.44° C | 57% | 1012.2 hPa | 0 mm | - | - | - |
| 1778109387 | 9.44° C | 58% | 1012.2 hPa | 0 mm | - | - | - |
| 1778108367 | 10° C | 57% | 1012.2 hPa | 0 mm | - | - | - |
| 1778107647 | 10° C | 58% | 1012.1 hPa | 0 mm | - | - | - |
| 1778106927 | 10.56° C | 59% | 1011.9 hPa | 0 mm | - | - | - |
| 1778106206 | 10.56° C | 57% | 1011.8 hPa | 0 mm | - | - | - |
| 1778105487 | 11.11° C | 57% | 1011.6 hPa | 0 mm | - | - | - |
| 1778104767 | 11.67° C | 56% | 1011.4 hPa | 0 mm | - | - | - |
| 1778103508 | 11.67° C | 57% | 1010.8 hPa | 0 mm | - | - | - |
| 1778102180 | 12.22° C | 55% | 1010.6 hPa | 0 mm | - | - | - |
| 1778101461 | 12.22° C | 53% | 1010.5 hPa | 0 mm | - | - | - |
| 1778100740 | 12.22° C | 56% | 1010.4 hPa | 0 mm | - | - | - |
| 1778100021 | 12.22° C | 55% | 1010.2 hPa | 0 mm | - | - | - |
| 1778099300 | 12.78° C | 55% | 1010.3 hPa | 0 mm | - | - | - |
* Rain latest hour (hover to see other rain measurements)
** Current wind speed in m/s (hover to see current wind gust speed)